When you browse on this site, cookies collect data to enhance your experience and personalize the content and advertising you see.
Visit our Privacy Policy to learn more. By continuing to use the site, you agree to this use of cookies and data.
  • In Hungary
  • List of Countries
  • For 7 days
  • Water Temperature
  • Satellite Maps
  • Weather Map
  • News
  • Weather Widgets
  • user-avatar
    Login

    Hourly Weather Zaberezhzhya

    Today, 21 November, Wednesday

    Time Temperature Precipitation Wind Pressure Humidity
    00:00 -6°C° 0 mm 6 mps 736 mmHg 100%
    01:00 -6°C° 0 mm 6 mps 736 mmHg 100%
    02:00 -6°C° 0 mm 6 mps 736 mmHg 100%
    03:00 -6°C° 0 mm 5 mps 736 mmHg 100%
    04:00 -6°C° 0 mm 5 mps 735 mmHg 100%
    05:00 -6°C° 0 mm 5 mps 735 mmHg 100%
    06:00 -6°C° 0 mm 5 mps 735 mmHg 100%
    07:00 -7°C° 0 mm 5 mps 736 mmHg 100%
    08:00 -7°C° 0 mm 5 mps 736 mmHg 100%
    09:00 -7°C° 0 mm 5 mps 736 mmHg 100%
    10:00 -6°C° 0.2 mm 5 mps 736 mmHg 100%
    11:00 -6°C° 0.4 mm 5 mps 737 mmHg 100%
    12:00 -6°C° 0.4 mm 5 mps 737 mmHg 100%
    13:00 -6°C° 0.2 mm 5 mps 737 mmHg 100%
    14:00 -6°C° 0.1 mm 5 mps 737 mmHg 100%
    15:00 -5°C° 0.1 mm 4 mps 737 mmHg 100%
    16:00 -5°C° 0 mm 4 mps 737 mmHg 100%
    17:00 -5°C° 0.2 mm 4 mps 737 mmHg 100%
    18:00 -5°C° 0.6 mm 4 mps 737 mmHg 100%
    19:00 -5°C° 0.4 mm 4 mps 737 mmHg 100%
    20:00 -5°C° 0.2 mm 3 mps 738 mmHg 100%
    21:00 -5°C° 0.1 mm 3 mps 738 mmHg 100%
    22:00 -5°C° 0.2 mm 3 mps 738 mmHg 100%
    23:00 -5°C° 0.1 mm 3 mps 738 mmHg 100%

    Tomorrow, 22 November, Thursday

    Time Temperature Precipitation Wind Pressure Humidity
    00:00 -5°C° 0 mm 3 mps 738 mmHg 100%
    01:00 -5°C° 0 mm 3 mps 739 mmHg 100%
    02:00 -5°C° 0 mm 3 mps 739 mmHg 100%
    03:00 -6°C° 0 mm 3 mps 739 mmHg 100%
    04:00 -6°C° 0 mm 2 mps 739 mmHg 100%
    05:00 -6°C° 0 mm 2 mps 739 mmHg 100%
    06:00 -7°C° 0 mm 2 mps 738 mmHg 100%
    07:00 -7°C° 0 mm 1 mps 739 mmHg 100%
    08:00 -7°C° 0 mm 1 mps 739 mmHg 100%
    09:00 -8°C° 0 mm 1 mps 739 mmHg 100%
    10:00 -7°C° 0 mm 1 mps 739 mmHg 100%
    11:00 -6°C° 0 mm 1 mps 739 mmHg 99%
    12:00 -6°C° 0 mm 2 mps 739 mmHg 98%
    13:00 -5°C° 0 mm 2 mps 739 mmHg 98%
    14:00 -5°C° 0 mm 2 mps 739 mmHg 98%
    15:00 -5°C° 0 mm 2 mps 739 mmHg 98%
    16:00 -3°C° 0 mm 1 mps 739 mmHg 98%
    17:00 -4°C° 0 mm 1 mps 740 mmHg 100%
    18:00 -4°C° 0 mm 1 mps 740 mmHg 100%
    19:00 -5°C° 0 mm 0 mps 740 mmHg 100%
    20:00 -6°C° 0 mm 0 mps 740 mmHg 100%
    21:00 -6°C° 0 mm 0 mps 740 mmHg 100%
    22:00 -6°C° 0 mm 0 mps 740 mmHg 100%
    23:00 -6°C° 0 mm 0 mps 740 mmHg 100%

    Day after tomorrow, 23 November, Friday

    Time Temperature Precipitation Wind Pressure Humidity
    00:00 -6°C° 0 mm 0 mps 740 mmHg 99%
    01:00 -6°C° 0 mm 0 mps 740 mmHg 98%
    02:00 -6°C° 0 mm 0 mps 740 mmHg 97%
    03:00 -6°C° 0 mm 0 mps 740 mmHg 95%
    04:00 -6°C° 0 mm 0 mps 740 mmHg 94%
    05:00 -6°C° 0 mm 0 mps 740 mmHg 93%
    06:00 -6°C° 0 mm 0 mps 740 mmHg 92%
    07:00 -6°C° 0 mm 0 mps 741 mmHg 91%
    08:00 -6°C° 0 mm 0 mps 741 mmHg 90%
    09:00 -6°C° 0 mm 0 mps 741 mmHg 89%
    10:00 -5°C° 0 mm 0 mps 742 mmHg 90%
    11:00 -4°C° 0 mm 0 mps 742 mmHg 95%
    12:00 -3°C° 0 mm 0 mps 742 mmHg 96%
    13:00 -2°C° 0 mm 0 mps 742 mmHg 90%
    14:00 -1°C° 0 mm 1 mps 742 mmHg 91%
    15:00 -1°C° 0 mm 1 mps 742 mmHg 94%
    16:00 -1°C° 0 mm 1 mps 742 mmHg 98%
    17:00 -2°C° 0 mm 1 mps 742 mmHg 100%
    18:00 -3°C° 0 mm 1 mps 741 mmHg 100%
    19:00 -3°C° 0 mm 1 mps 741 mmHg 99%
    20:00 -3°C° 0 mm 1 mps 741 mmHg 98%
    21:00 -4°C° 0 mm 1 mps 741 mmHg 97%
    22:00 -6°C° 0 mm 1 mps 741 mmHg 99%
    23:00 -7°C° 0 mm 1 mps 740 mmHg 100%

    24 November, Saturday

    Time Temperature Precipitation Wind Pressure Humidity
    00:00 -8°C° 0 mm 1 mps 740 mmHg 100%
    01:00 -9°C° 0 mm 1 mps 739 mmHg 100%
    02:00 -10°C° 0 mm 0 mps 739 mmHg 100%
    03:00 -10°C° 0 mm 0 mps 739 mmHg 100%
    04:00 -11°C° 0 mm 0 mps 738 mmHg 100%
    05:00 -11°C° 0 mm 0 mps 738 mmHg 100%
    06:00 -11°C° 0 mm 0 mps 738 mmHg 100%
    07:00 -11°C° 0 mm 0 mps 738 mmHg 100%
    08:00 -12°C° 0 mm 0 mps 737 mmHg 100%
    09:00 -11°C° 0 mm 0 mps 737 mmHg 100%
    10:00 -10°C° 0 mm 0 mps 737 mmHg 99%
    11:00 -8°C° 0 mm 0 mps 737 mmHg 98%
    12:00 -6°C° 0 mm 1 mps 736 mmHg 95%
    13:00 -4°C° 0 mm 1 mps 736 mmHg 92%
    14:00 -3°C° 0 mm 1 mps 736 mmHg 93%

    25 November, Sunday

    Time Temperature Precipitation Wind Pressure Humidity

    26 November, Monday

    Time Temperature Precipitation Wind Pressure Humidity
    Show more